Volver al catálogo

COSMOS 1823 DEB

ActivoLEO
NORAD 39805·DEBRIS·🇷🇺 Russia

Lanzado Feb 20, 1987 desde Plesetsk Cosmodrome

Loading…

Próximos Pases (próximas 24 horas)

TLE

EnvejeciendoSource: Space-Track

Época: Sep 9, 2026, 10:28 UTC

1 39805U 87020ED  26252.43639380 -.00000015  00000-0  17667-4 0  9993
2 39805  73.5942 236.8863 0021327 103.8017  51.6140 12.42658610556624

Sigue COSMOS 1823 DEB en tiempo real con AllMySat

Download on the App Store